Date,TemperatureHighF,TemperatureAvgF,TemperatureLowF,DewpointHighF,DewpointAvgF,DewpointLowF,HumidityHigh,HumidityAvg,HumidityLow,PressureMaxIn,PressureMinIn,WindSpeedMaxMPH,WindSpeedAvgMPH,GustSpeedMaxMPH,PrecipitationSumIn
2014-1-1,7,4,2,4,-7,-100,86,77,79,30.52,30.31,10,-20,19,0.00
2014-1-2,6,0,-8,0,-20,-100,84,67,72,30.61,30.48,7,-32,12,0.00
2014-1-6,-2,-4,-9,-9,-23,-100,77,63,67,30.58,30.42,15,-4,28,0.00
2014-1-7,16,6,-7,8,-9,-100,81,69,66,30.43,30.21,5,2,10,0.00
2014-1-8,16,10,5,8,2,-100,82,74,66,30.54,30.37,6,-81,10,0.00
2014-1-9,28,14,4,21,9,-100,93,82,75,30.50,30.03,17,-24,25,0.00
2014-1-10,32,29,22,31,28,20,97,95,93,30.05,29.60,13,2,22,0.00
2014-1-11,32,27,23,31,25,21,97,92,85,29.86,29.61,15,-16,28,0.00
2014-1-12,45,39,26,36,32,23,91,78,69,29.77,29.48,20,8,35,0.00
2014-1-13,43,36,29,34,28,24,88,74,51,29.83,29.62,15,8,19,0.00
2014-1-14,43,28,17,36,16,-100,81,68,57,30.23,29.59,25,17,43,0.00
2014-1-15,35,21,11,26,9,-100,84,66,50,30.26,29.70,18,3,29,0.00
2014-1-16,38,27,9,30,19,-100,89,74,62,30.03,29.65,24,-5,39,0.00
2014-1-17,21,13,5,11,3,-100,78,68,55,30.19,29.91,21,9,33,0.00
2014-1-18,36,26,15,34,21,11,92,82,62,30.10,29.60,22,-2,38,0.01
2014-1-19,57,37,20,36,27,17,90,71,39,30.01,29.64,14,10,24,0.01
2014-1-20,43,28,0,33,21,-100,91,81,66,30.48,29.83,21,-5,31,0.00
2014-1-21,16,3,-9,8,-7,-100,80,73,69,30.57,30.15,14,-126,22,0.00
2014-1-22,19,10,-3,15,-7,-100,84,66,64,30.65,30.13,22,-70,34,0.01
2014-1-23,9,0,-8,1,-16,-100,79,66,64,30.92,30.54,13,-124,22,0.01
2014-1-24,43,28,9,37,14,-100,90,64,54,30.53,29.68,18,-15,31,0.00
2014-1-25,38,24,14,35,10,-100,90,60,41,30.07,29.51,20,5,33,0.00
2014-1-26,47,28,1,35,12,-100,87,63,54,30.29,29.44,28,-4,50,0.00
2014-1-27,5,0,-5,-6,-11,-100,79,63,53,30.60,30.30,18,-18,30,0.00
2014-1-28,14,2,-8,-2,-11,-100,79,61,44,30.59,30.33,13,-23,23,0.00
2014-1-29,40,22,1,16,1,-100,70,48,30,30.33,29.66,21,11,35,0.00
2014-1-30,37,24,9,27,11,-100,83,61,37,30.15,29.45,21,14,35,0.00
2014-1-31,22,11,6,5,1,-1,77,66,47,30.27,30.15,10,3,16,0.00
2014-2-4,4,3,3,0,0,0,85,85,85,30.49,30.44,14,13,24,0.00
2014-2-5,7,1,-6,1,-10,-100,85,75,70,30.72,30.50,17,-150,28,0.00
2014-2-6,10,0,-8,2,-17,-100,83,68,63,30.71,30.51,10,-109,18,0.00
2014-2-7,16,6,-5,6,-10,-100,84,67,62,30.50,30.31,12,-91,20,0.00
2014-2-10,10,4,-3,1,-5,-100,83,72,66,30.66,30.59,5,-10,8,0.00
2014-2-11,17,7,-5,9,-3,-100,84,73,67,30.63,30.21,16,-15,23,0.00
2014-2-12,25,20,16,20,15,-100,89,81,70,30.21,29.91,19,6,28,0.00
2014-2-13,43,28,16,34,22,10,89,77,60,29.90,29.69,20,12,37,0.02
2014-2-14,16,12,4,10,2,-100,88,76,73,30.18,29.77,15,-34,22,0.02
2014-2-15,40,22,4,34,18,0,90,83,76,30.15,29.83,19,10,26,0.05
2014-2-16,26,21,16,22,18,14,92,85,75,30.27,29.97,14,-13,24,0.05
2014-2-17,44,33,23,34,27,20,94,80,61,29.99,29.85,18,9,32,0.05
2014-2-18,58,42,32,37,31,25,88,66,44,29.90,29.60,16,8,24,0.05
2014-2-19,52,39,28,35,31,25,93,76,42,29.94,29.65,13,6,23,0.01
2014-2-20,38,33,22,34,31,18,97,92,79,29.65,29.41,22,10,42,0.13
2014-2-21,36,26,17,26,19,11,88,75,60,29.94,29.65,17,8,32,0.04
2014-2-22,28,21,18,20,8,-100,89,69,53,30.27,29.94,8,4,13,0.04
2014-2-23,26,16,9,16,3,-100,83,70,58,30.44,30.26,11,-16,17,0.00
2014-2-24,21,15,11,15,6,-100,89,76,62,30.48,30.33,5,3,9,0.00
2014-2-25,12,4,-4,8,-12,-100,88,69,70,30.57,30.44,13,-70,21,0.00
2014-2-26,25,9,-7,17,1,-100,85,73,63,30.56,29.93,18,-104,33,0.00
2014-2-27,11,1,-7,5,-21,-100,75,56,52,30.32,30.09,13,-84,23,0.00
2014-2-28,31,15,-1,19,-6,-100,90,65,61,30.22,29.94,14,8,25,0.01
2014-3-1,15,3,-2,12,-10,-100,85,74,74,30.65,30.22,15,-242,23,0.01
2014-3-2,-1,-5,-10,-7,-16,-100,81,71,68,30.76,30.65,12,-70,17,0.00
2014-3-3,15,4,-11,7,-10,-100,80,67,62,30.71,30.31,11,-51,20,0.00
2014-3-4,24,16,8,15,5,-100,84,70,59,30.30,30.13,9,-50,17,0.01
2014-3-5,27,21,15,21,16,12,90,82,72,30.42,30.25,8,6,15,0.01
2014-3-6,34,26,15,30,24,12,92,89,82,30.41,29.90,15,8,26,0.01
2014-3-7,38,32,22,34,28,19,92,86,81,30.22,29.81,16,10,23,0.03
2014-3-8,31,23,14,23,16,-100,89,80,71,30.41,30.23,10,5,17,0.02
2014-3-9,54,37,19,43,30,16,89,76,63,30.32,29.81,15,7,26,0.02
2014-3-10,66,52,41,52,42,33,87,70,57,29.81,29.67,8,4,14,0.01
2014-3-11,44,38,33,40,35,30,93,86,78,30.06,29.60,16,10,31,0.00
2014-3-12,35,30,26,29,24,-100,89,80,74,30.21,30.07,15,7,26,0.02
2014-3-13,62,44,29,42,34,26,93,69,37,30.12,29.64,15,8,24,0.02
2014-3-14,46,42,36,33,31,28,82,66,57,29.75,29.61,13,8,22,0.00
2014-3-15,41,32,27,30,27,25,94,82,61,30.33,30.05,13,10,25,0.00
2014-3-16,35,27,19,24,19,14,90,71,49,30.46,30.13,9,5,18,0.02
2014-3-17,49,36,24,33,26,18,81,68,51,30.12,29.53,17,12,35,0.02
2014-3-18,52,40,31,39,33,27,94,75,58,29.76,29.51,12,8,21,0.05
2014-3-19,46,35,29,34,29,-100,95,80,58,30.08,29.76,17,10,27,0.02
2014-3-20,57,41,28,38,32,26,93,71,38,30.08,29.90,10,5,17,0.02
2014-3-21,54,40,28,38,31,23,86,72,47,30.24,29.79,21,12,36,0.00
2014-3-22,31,24,17,23,13,9,81,64,45,30.58,30.24,16,-11,26,0.00
2014-3-23,36,23,11,16,3,-100,88,56,38,30.62,30.40,7,-20,12,0.00
2014-3-26,51,47,44,39,39,38,83,74,62,29.67,29.65,23,20,38,0.00
2014-3-27,46,40,32,46,39,31,97,95,84,29.78,29.32,18,11,31,0.29
2014-3-28,35,33,31,31,29,28,92,87,79,30.29,29.79,14,5,22,0.01
2014-3-29,51,38,24,36,30,22,94,74,53,30.36,30.14,10,-11,17,0.01
2014-3-31,27,25,23,18,17,15,74,71,69,29.79,29.71,21,17,32,0.06
2014-4-1,23,18,20,15,-2,-100,77,63,70,29.93,29.79,22,18,39,0.06
2014-4-10,65,59,48,32,27,24,44,29,22,29.99,29.89,15,7,22,0.00
2014-4-11,77,59,41,38,30,26,59,36,18,30.01,29.85,15,6,27,0.00
2014-4-13,37,34,32,36,33,31,96,96,95,29.89,29.66,20,17,37,0.20
2014-4-14,39,30,26,30,22,-100,96,76,53,30.21,29.90,18,12,29,0.24
2014-4-15,45,33,21,31,23,17,89,69,50,30.27,30.00,11,5,21,0.05
2014-4-28,52,52,52,52,52,52,97,97,97,29.33,29.33,10,10,10,0.00
2014-5-8,76,67,53,68,59,46,89,77,66,29.68,29.51,16,11,29,0.37
2014-5-9,68,56,47,46,42,35,86,61,32,29.83,29.67,15,8,25,0.37
2014-5-10,78,62,52,57,49,35,85,64,39,29.85,29.66,16,6,27,0.05
2014-5-11,72,60,48,65,56,46,97,88,76,29.89,29.63,15,6,23,0.66
2014-5-12,65,57,47,63,55,44,97,93,86,29.96,29.63,16,8,27,0.62
2014-5-13,57,50,44,44,41,37,90,72,53,30.29,29.96,15,10,25,0.62
2014-5-14,65,52,39,44,38,32,88,61,34,30.29,30.09,11,4,20,0.00
2014-5-15,50,44,35,36,33,30,83,65,52,30.19,30.13,14,9,27,0.00
2014-5-16,56,46,33,36,32,28,88,60,38,30.16,30.09,6,3,12,0.00
2014-5-17,67,53,36,40,32,29,78,48,26,30.17,30.08,9,3,17,0.00
2014-5-18,71,60,46,46,38,32,69,46,29,30.16,29.95,13,8,24,0.00
2014-5-19,73,64,55,63,55,45,87,73,56,29.98,29.65,15,10,30,0.08
2014-5-20,86,73,60,66,61,54,93,69,35,29.83,29.72,8,3,15,0.08
2014-5-21,79,71,61,49,47,45,59,43,32,30.09,29.98,7,5,17,0.00
2014-5-22,80,65,52,50,46,40,82,54,27,30.22,30.08,6,2,14,0.00
2014-5-23,82,69,55,50,44,39,64,42,24,30.20,30.06,8,4,14,0.00
2014-5-24,80,69,58,57,49,43,72,49,28,30.11,29.98,11,6,20,0.00
2014-5-25,78,69,63,67,62,56,89,79,68,30.01,29.86,9,6,20,0.00
2014-5-26,76,71,67,67,65,61,86,81,73,29.90,29.84,7,4,12,0.01
2014-5-27,84,71,63,69,64,60,93,80,53,29.94,29.84,10,4,19,0.15
2014-5-28,83,71,63,68,63,54,95,78,54,30.00,29.91,6,3,15,0.15
2014-5-29,85,73,60,66,60,52,81,65,49,30.04,29.93,9,5,17,0.00
2014-5-30,88,77,66,68,65,63,90,69,47,30.04,29.95,12,6,19,0.00
2014-5-31,85,76,68,69,66,65,91,72,51,30.02,29.85,10,6,22,0.00
2014-6-1,89,75,65,69,66,62,94,75,47,29.88,29.66,16,8,28,0.48
2014-6-2,80,71,62,67,61,57,94,74,47,29.92,29.70,14,7,24,0.48
2014-6-3,76,65,57,62,58,54,95,79,53,30.00,29.63,15,4,28,0.83
2014-6-4,79,69,63,67,64,60,97,85,61,29.87,29.53,12,3,23,0.89
2014-6-5,72,66,59,64,61,57,95,86,75,29.92,29.82,11,5,20,0.00
2014-6-6,87,74,61,70,62,55,97,71,36,29.93,29.83,6,3,10,0.01
2014-6-7,76,67,58,65,60,54,91,78,56,30.02,29.85,9,4,21,0.01
2014-6-8,78,66,52,59,52,46,94,66,36,30.09,29.96,9,4,19,0.00
2014-6-9,74,65,58,62,58,53,93,78,62,29.96,29.88,6,3,13,0.00
2014-6-10,77,67,56,63,56,50,84,70,56,29.90,29.82,9,3,17,0.00
2014-6-11,81,70,56,58,55,52,88,61,39,29.85,29.71,6,3,16,0.00
2014-6-12,72,66,57,60,50,40,81,58,35,30.03,29.74,12,8,23,0.00
2014-6-13,77,64,47,48,43,39,81,50,28,30.09,29.88,11,4,18,0.00
2014-6-14,81,70,58,66,58,48,75,67,56,29.92,29.56,17,12,33,0.00
2014-6-15,81,72,63,65,60,56,94,68,44,29.88,29.46,16,9,32,0.09
2014-6-16,86,71,62,73,65,57,93,81,62,29.90,29.58,23,9,52,0.99
2014-6-17,85,74,61,76,68,60,96,83,70,29.86,29.69,14,9,25,0.06
2014-6-18,87,79,69,77,73,65,91,82,71,29.77,29.67,13,8,23,0.06
2014-6-19,83,75,69,74,71,66,96,89,71,29.93,29.72,14,5,25,0.53
2014-6-20,87,76,65,70,66,56,98,75,44,29.96,29.77,13,4,24,0.01
2014-6-21,85,75,65,70,66,61,92,74,55,29.93,29.80,14,4,27,0.02
2014-6-22,74,70,64,69,66,62,96,89,81,29.91,29.74,11,3,27,0.66
2014-6-23,80,71,63,69,65,62,96,81,57,29.91,29.81,7,2,15,0.66
2014-6-24,83,72,61,65,62,58,93,72,49,29.96,29.90,6,3,12,0.00
2014-6-25,85,74,61,67,63,58,92,70,44,30.00,29.91,8,1,12,0.00
2014-6-26,81,72,66,70,66,63,95,83,65,29.96,29.79,11,6,24,0.55
2014-6-27,78,71,66,74,68,64,96,90,78,29.85,29.70,10,6,18,0.15
2014-6-28,82,74,62,74,69,58,93,83,64,29.81,29.65,18,9,28,0.11
2014-6-29,83,71,63,75,67,60,95,86,64,29.86,29.70,16,5,21,0.32
2014-6-30,71,67,63,69,65,60,96,92,84,29.81,29.59,17,4,40,0.18
2014-7-7,83,78,70,72,69,64,84,74,64,29.78,29.67,11,5,18,0.00
2014-7-8,79,70,61,64,60,58,89,72,52,29.94,29.75,13,7,17,0.00
2014-7-9,82,70,56,65,59,53,92,71,48,30.03,29.94,7,2,10,0.00
2014-7-10,83,73,62,66,62,59,88,71,52,30.05,29.96,12,6,19,0.00
2014-7-11,75,70,64,71,66,61,95,87,76,30.04,29.90,15,5,19,0.19
2014-7-12,75,70,68,72,69,66,97,94,88,30.04,29.92,7,3,10,0.42
2014-7-14,55,55,55,51,50,50,85,84,84,30.08,30.08,6,5,6,0.01
2014-7-15,70,60,51,55,52,49,93,75,54,30.13,30.04,9,4,13,0.00
2014-7-16,76,65,53,57,53,51,94,68,44,30.08,30.01,5,1,6,0.00
2014-7-17,78,67,56,62,57,52,91,71,48,30.06,30.01,8,2,11,0.00
2014-7-18,77,68,58,63,60,55,90,76,58,30.05,29.95,10,5,14,0.00
2014-7-19,79,70,61,66,63,58,91,78,62,29.98,29.89,11,6,16,0.00
2014-7-20,84,74,63,72,66,61,93,79,62,29.90,29.80,11,7,17,0.00
2014-7-21,89,79,69,80,73,67,92,84,72,29.84,29.78,10,7,15,0.00
2014-7-22,85,79,67,76,71,62,90,78,63,30.11,29.79,8,4,10,0.00
2014-7-23,83,71,58,67,62,55,93,74,53,30.21,30.11,4,2,8,0.00
2014-7-24,76,67,60,66,62,58,92,82,59,30.17,29.83,13,4,19,0.07
2014-7-25,81,72,64,73,66,59,91,81,72,29.90,29.73,17,8,23,0.03
2014-7-26,88,76,69,76,71,67,96,84,61,29.88,29.73,8,2,9,0.00
2014-7-27,74,68,61,67,60,57,92,77,61,30.11,29.86,14,7,21,0.00
2014-7-28,75,65,56,64,59,54,96,83,66,30.22,30.11,7,2,10,0.00
2014-7-29,77,65,53,61,56,51,95,75,49,30.18,30.07,5,2,8,0.01
2014-7-30,80,68,54,62,57,52,93,71,45,30.12,30.06,4,1,7,0.00
2014-7-31,82,68,56,63,59,54,93,74,45,30.08,30.00,8,2,11,0.00
2014-8-1,85,71,58,65,60,56,96,72,45,30.08,30.03,3,1,6,0.00
2014-8-2,85,74,61,68,63,58,93,71,46,30.13,30.03,6,2,9,0.00
2014-8-3,85,75,66,68,65,62,90,73,52,30.08,29.99,7,3,9,0.00
2014-8-4,87,75,64,71,67,62,95,78,53,30.04,29.95,4,1,5,0.00
2014-8-5,78,70,62,70,66,60,95,87,72,30.07,29.99,4,1,5,0.00
2014-8-6,68,67,66,66,66,65,97,96,91,30.03,29.95,8,5,12,2.29
2014-8-7,69,67,65,68,66,64,97,96,93,29.97,29.93,8,5,14,0.07
2014-8-8,79,71,64,69,66,63,97,85,68,30.02,29.96,8,3,10,0.00
2014-8-9,78,70,64,69,65,63,95,85,67,30.04,29.98,9,4,13,0.00
2014-8-10,77,71,65,70,67,63,95,88,77,30.03,29.96,5,2,8,0.00
2014-8-11,76,68,58,66,61,54,95,79,57,30.06,29.99,12,7,20,0.00
2014-8-12,76,64,52,61,55,50,93,74,49,30.11,30.04,8,3,13,0.00
2014-8-13,82,69,54,63,59,52,93,73,47,30.14,30.04,7,2,10,0.00
2014-8-14,81,71,59,68,63,56,94,78,59,30.08,29.92,5,2,10,0.00
2014-8-15,72,68,65,69,66,63,97,92,87,29.96,29.85,10,4,14,0.45
2014-8-16,83,73,66,74,68,65,97,87,67,29.89,29.83,5,2,7,0.00
2014-8-17,83,74,65,72,69,64,97,84,66,29.95,29.83,6,3,10,0.00
2014-8-18,88,77,68,73,69,66,96,79,55,29.89,29.67,9,4,15,0.00
2014-8-19,85,75,65,69,66,62,92,77,53,29.77,29.70,6,2,9,0.00
2014-8-20,78,71,68,74,68,64,96,92,83,29.85,29.74,10,4,17,0.48
2014-8-21,86,78,73,76,73,70,96,85,70,29.82,29.70,9,6,14,0.04
2014-8-22,88,77,70,80,73,69,96,88,72,29.91,29.79,8,2,9,0.17
2014-8-23,85,75,69,77,72,68,97,90,76,29.91,29.77,10,5,13,0.82
2014-8-24,87,79,72,75,72,70,96,80,61,29.84,29.76,10,6,13,0.00
2014-8-25,82,73,68,70,68,62,96,85,58,30.01,29.82,10,3,15,0.06
2014-8-26,76,68,61,64,62,59,96,83,65,30.17,30.01,8,2,10,0.30
2014-8-27,73,68,63,68,64,61,93,89,84,30.17,30.04,6,3,9,0.05
2014-8-28,77,71,66,73,69,66,97,93,84,30.06,29.81,13,6,17,0.66
2014-8-29,76,70,66,71,68,64,97,92,83,29.84,29.71,11,5,15,0.58